Date String (YYYY-MM-DD hh:mm:ss) UTC,Instrument flags,Ambient pressure (hPa),Sample flow (lpm),Bypass flow (lpm),Sample temperature (°C),Ambient temperature (°C),ASC tube jacket temperature (°C),LED temperature (°C),Box temperature (°C),Sample RH (%),Span deviation,Mass concentration (μg/m³),Mass concentration (μg/m³),Mass concentration (μg/m³)
DateTimeUTC,F1_M11,P_M11,Q1_M11,Q2_M11,T1_M11,T2_M11,T3_M11,T4_M11,T5_M11,U1_M11,ZSPAN_M11,X0_M11,X2_M11,X1_M11
2022-01-29 10:00:00,,0829.5,4.98,0.00,22.1,21.2,00.0,31.2,23.7,04.3,0000.0,0002.75,0000.61,0000.50
2022-01-29 10:01:00,,0829.5,5.01,0.00,22.1,21.4,00.0,31.2,23.8,04.3,0000.0,0002.72,0000.61,0000.50
2022-01-29 10:02:00,,0829.5,5.02,0.00,22.2,22.1,00.0,31.3,24.1,04.1,0000.0,0002.71,0000.61,0000.50
2022-01-29 10:03:00,,0829.5,4.99,0.00,22.4,22.9,00.0,31.3,24.4,04.0,0000.0,0002.68,0000.61,0000.50
2022-01-29 10:04:00,,0829.5,5.00,0.00,22.5,23.1,00.0,31.4,24.5,03.9,0000.0,0000.89,0000.60,0000.49
2022-01-29 10:05:00,,0829.5,5.00,0.00,22.5,22.9,00.0,31.4,24.5,03.9,0000.0,0000.74,0000.55,0000.47
2022-01-29 10:06:00,,0829.5,5.00,0.00,22.6,22.7,00.0,31.4,24.4,03.8,0000.0,0002.02,0000.53,0000.47
2022-01-29 10:07:00,,0829.5,4.99,0.00,22.5,22.5,00.0,31.4,24.4,03.7,0000.0,0002.02,0000.52,0000.46
2022-01-29 10:08:00,,0829.5,5.00,0.00,22.5,22.3,00.0,31.4,24.3,03.7,0000.0,0002.05,0000.53,0000.46
2022-01-29 10:09:00,,0829.5,5.00,0.00,22.5,22.2,00.0,31.4,24.2,03.7,0000.0,0002.04,0000.52,0000.44
2022-01-29 10:10:00,,0829.5,5.00,0.00,22.5,22.1,00.0,31.4,24.2,03.6,0000.0,0002.07,0000.51,0000.43
2022-01-29 10:11:00,,0829.5,4.98,0.00,22.5,22.0,00.0,31.4,24.2,03.5,0000.0,0002.06,0000.50,0000.41
2022-01-29 10:12:00,,0829.4,5.00,0.00,22.5,21.9,00.0,31.4,24.1,03.5,0000.0,0002.04,0000.48,0000.40
2022-01-29 10:13:00,,0829.3,5.00,0.00,22.4,21.8,00.0,31.4,24.1,03.4,0000.0,0002.04,0000.47,0000.39
2022-01-29 10:14:00,,0829.3,5.01,0.00,22.4,21.8,00.0,31.4,24.1,03.4,0000.0,0002.02,0000.46,0000.38
2022-01-29 10:15:00,,0829.3,5.00,0.00,22.4,21.8,00.0,31.4,24.1,03.3,0000.0,0001.97,0000.44,0000.36
2022-01-29 10:16:00,,0829.3,5.01,0.00,22.4,21.7,00.0,31.4,24.1,03.3,0000.0,0001.83,0000.43,0000.35
2022-01-29 10:17:00,,0829.3,5.00,0.00,22.4,21.7,00.0,31.4,24.1,03.3,0000.0,0000.66,0000.43,0000.34
2022-01-29 10:18:00,,0829.3,5.00,0.00,22.4,21.7,00.0,31.4,24.0,03.3,0000.0,0000.63,0000.42,0000.33
2022-01-29 10:19:00,,0829.3,5.00,0.00,22.4,21.7,00.0,31.4,24.1,03.3,0000.0,0000.59,0000.40,0000.32
2022-01-29 10:20:00,,0829.2,5.00,0.00,22.4,21.6,00.0,31.4,24.0,03.2,0000.0,0000.59,0000.40,0000.32
2022-01-29 10:21:00,,0829.2,5.01,0.00,22.4,21.6,00.0,31.4,24.0,03.3,0000.0,0000.52,0000.37,0000.32
2022-01-29 10:22:00,,0829.2,5.00,0.00,22.3,21.6,00.0,31.4,24.0,03.2,0000.0,0000.52,0000.36,0000.31
2022-01-29 10:23:00,,0829.2,5.00,0.00,22.3,21.5,00.0,31.4,24.0,03.2,0000.0,0000.56,0000.38,0000.31
2022-01-29 10:24:00,,0829.2,5.00,0.00,22.3,21.5,00.0,31.3,24.0,03.3,0000.0,0000.61,0000.40,0000.31
2022-01-29 10:25:00,,0829.2,5.00,0.00,22.3,21.5,00.0,31.3,23.9,03.3,0000.0,0000.64,0000.41,0000.31
2022-01-29 10:26:00,,0829.2,5.00,0.00,22.3,21.5,00.0,31.3,23.9,03.4,0000.0,0001.14,0000.43,0000.31
2022-01-29 10:27:00,,0829.2,4.99,0.00,22.3,21.5,00.0,31.3,23.9,03.4,0000.0,0001.71,0000.44,0000.32
2022-01-29 10:28:00,,0829.2,5.01,0.00,22.3,21.4,00.0,31.3,23.9,03.3,0000.0,0001.66,0000.43,0000.33
2022-01-29 10:29:00,,0829.2,5.00,0.00,22.2,21.5,00.0,31.3,23.9,03.3,0000.0,0001.64,0000.43,0000.34
2022-01-29 10:30:00,,0829.2,4.99,0.00,22.3,22.0,00.0,31.3,24.1,03.2,0000.0,0001.65,0000.44,0000.34
2022-01-29 10:31:00,,0829.2,5.00,0.00,22.4,22.8,00.0,31.4,24.4,03.2,0000.0,0001.68,0000.45,0000.35
2022-01-29 10:32:00,,0829.2,5.00,0.00,22.6,23.2,00.0,31.4,24.5,03.2,0000.0,0001.68,0000.45,0000.35
2022-01-29 10:33:00,,0829.2,5.00,0.00,22.6,23.0,00.0,31.4,24.5,03.1,0000.0,0001.68,0000.45,0000.35
2022-01-29 10:34:00,,0829.1,5.00,0.00,22.6,22.8,00.0,31.5,24.5,03.2,0000.0,0001.64,0000.44,0000.36
2022-01-29 10:35:00,,0829.1,4.98,0.00,22.6,22.6,00.0,31.5,24.4,03.3,0000.0,0001.59,0000.42,0000.36
2022-01-29 10:36:00,,0829.1,5.01,0.00,22.6,22.4,00.0,31.5,24.3,03.3,0000.0,0001.55,0000.41,0000.37
2022-01-29 10:37:00,,0829.1,5.00,0.00,22.6,22.2,00.0,31.5,24.3,03.5,0000.0,0001.08,0000.41,0000.38
2022-01-29 10:38:00,,0829.1,5.01,0.00,22.5,22.1,00.0,31.5,24.2,03.2,0000.0,0000.52,0000.42,0000.39
2022-01-29 10:39:00,,0829.1,5.00,0.00,22.5,22.0,00.0,31.5,24.2,03.4,0000.0,0000.55,0000.43,0000.39
2022-01-29 10:40:00,,0829.1,5.00,0.00,22.5,21.9,00.0,31.5,24.1,03.5,0000.0,0000.56,0000.44,0000.39
2022-01-29 10:41:00,,0829.1,5.00,0.00,22.4,21.8,00.0,31.5,24.1,03.7,0000.0,0000.56,0000.43,0000.39
2022-01-29 10:42:00,,0829.1,5.01,0.00,22.4,21.8,00.0,31.5,24.1,03.6,0000.0,0000.55,0000.44,0000.40
2022-01-29 10:43:00,,0829.1,5.00,0.00,22.4,21.7,00.0,31.5,24.0,03.6,0000.0,0000.58,0000.45,0000.41
2022-01-29 10:44:00,,0829.1,4.99,0.00,22.4,21.6,00.0,31.4,24.0,03.8,0000.0,0000.59,0000.46,0000.42
2022-01-29 10:45:00,,0829.1,5.00,0.00,22.4,21.6,00.0,31.4,24.0,03.9,0000.0,0000.61,0000.47,0000.43
2022-01-29 10:46:00,,0829.1,5.00,0.00,22.4,21.5,00.0,31.4,24.0,03.7,0000.0,0000.61,0000.48,0000.43
2022-01-29 10:47:00,,0829.1,4.97,0.00,22.3,21.5,00.0,31.4,24.0,03.6,0000.0,0000.64,0000.48,0000.43
2022-01-29 10:48:00,,0829.0,5.00,0.00,22.3,21.5,00.0,31.4,24.0,03.6,0000.0,0000.66,0000.49,0000.43
2022-01-29 10:49:00,,0829.0,5.00,0.00,22.3,21.5,00.0,31.4,23.9,03.5,0000.0,0000.68,0000.49,0000.43
2022-01-29 10:50:00,,0829.0,4.99,0.00,22.3,21.4,00.0,31.4,23.9,03.6,0000.0,0000.73,0000.50,0000.43
2022-01-29 10:51:00,,0829.0,5.00,0.00,22.3,21.4,00.0,31.4,23.9,03.5,0000.0,0000.79,0000.50,0000.42
2022-01-29 10:52:00,,0829.0,5.01,0.00,22.2,21.3,00.0,31.3,23.8,03.6,0000.0,0000.79,0000.49,0000.42
2022-01-29 10:53:00,,0829.0,5.00,0.00,22.2,21.3,00.0,31.3,23.8,03.6,0000.0,0000.76,0000.48,0000.41
2022-01-29 10:54:00,,0829.0,4.99,0.00,22.2,21.3,00.0,31.3,23.8,03.5,0000.0,0000.73,0000.47,0000.41
2022-01-29 10:55:00,,0829.0,5.00,0.00,22.2,21.3,00.0,31.3,23.8,03.4,0000.0,0000.79,0000.48,0000.40
2022-01-29 10:56:00,,0829.0,5.01,0.00,22.2,21.9,00.0,31.3,24.0,03.5,0000.0,0000.77,0000.47,0000.39
2022-01-29 10:57:00,,0829.0,5.00,0.00,22.4,22.7,00.0,31.4,24.3,03.7,0000.0,0000.80,0000.47,0000.38
2022-01-29 10:58:00,,0829.0,5.01,0.00,22.5,23.2,00.0,31.4,24.5,03.7,0000.0,0000.77,0000.47,0000.38
2022-01-29 10:59:00,,0829.0,5.00,0.00,22.6,23.0,00.0,31.4,24.5,03.9,0000.0,0000.77,0000.46,0000.38
